Temperature
18 18 18 18 18 18 18 18 18 18 18 18 18 18 18 18 18 19 19 19 19 19 19 19 19 19 19 19 18 18 18 18 18 18 18 18 18 18 17 17 17 17 17
18 18 18 18 18 18 17 17 17 17 17 17 18 18 18 18 18 19 18 18 18 18 19 19 19 19 19 19 18 18 18 18 18 18 18 18 18 18 18 18 17 17 17
17 17 17 17 17 17 17 17 17 17 17 17 17 18 18 18 18 18 18 18 18 18 18 18 19 19 19 19 19 18 18 18 18 18 17 17 18 17 17 18 17 17 17
17 17 16 16 16 16 16 16 16 17 17 17 17 17 17 18 18 18 18 18 18 18 18 18 18 18 19 19 18 18 18 18 18 18 18 17 17 17 17 17 17 17 17
16 16 16 16 16 16 16 16 16 16 16 16 16 17 17 17 18 18 18 18 17 17 17 18 18 18 18 18 18 18 18 18 18 18 18 18 18 17 17 17 17 17 17
15 15 16 16 15 15 15 15 15 15 16 16 16 16 17 17 17 17 18 17 17 17 17 17 18 18 18 18 18 18 18 18 18 18 18 18 18 18 17 17 17 17 17
15 15 15 15 15 15 15 15 15 15 15 15 15 16 16 17 17 17 18 17 17 17 17 17 17 18 18 17 17 18 18 18 18 18 18 18 18 18 18 17 17 17 17
15 14 15 15 15 15 15 15 15 15 15 15 15 16 16 17 17 18 18 18 17 17 17 17 17 17 17 17 17 17 18 18 18 18 18 18 18 18 18 17 17 17 17
14 14 14 15 15 15 15 15 15 15 15 15 15 16 16 17 18 18 18 18 18 18 18 18 18 17 17 17 17 17 17 18 17 18 18 18 17 17 17 17 17 17 17
14 14 14 14 14 14 15 15 15 15 15 15 15 16 16 17 17 18 18 18 18 18 18 18 18 17 17 17 17 17 17 17 17 17 17 18 17 17 17 17 17 17 17
14 14 14 14 14 14 14 14 14 15 15 15 15 15 16 16 17 17 18 18 18 18 17 18 18 18 17 17 17 17 17 17 17 17 17 17 17 17 17 17 17 17 17
14 14 14 14 14 14 14 14 14 14 14 15 15 15 15 16 17 18 18 18 18 18 17 17 17 17 17 17 17 17 17 17 17 17 17 17 17 17 17 17 17 17 17
13 13 13 13 13 13 13 14 14 14 14 14 15 15 15 15 16 17 18 18 18 18 17 17 17 17 17 17 17 17 17 17 17 17 17 17 17 17 17 17 17 17 17
12 12 12 12 12 12 13 13 13 13 14 14 14 14 15 15 16 16 17 18 18 18 18 17 17 17 17 16 16 16 16 16 17 17 17 17 17 17 17 17 17 16 16
11 11 11 12 12 12 12 12 12 13 13 13 14 14 14 15 15 16 17 17 17 18 18 17 17 17 17 16 16 16 16 16 16 17 17 17 17 17 17 17 17 16 16
9 10 10 10 11 11 11 11 12 12 12 13 13 13 14 14 15 15 16 16 17 17 17 17 17 16 16 16 16 16 16 16 16 16 17 17 17 17 17 17 16 16 16
9 9 9 9 10 10 10 11 11 11 12 12 12 13 13 13 14 14 15 15 16 16 17 17 16 16 16 16 15 15 15 16 16 16 16 16 17 17 17 16 16 16 16
8 8 8 8 9 9 9 10 10 11 11 11 12 12 12 12 13 13 14 15 15 15 15 16 16 15 15 15 15 14 14 15 15 16 16 16 16 16 16 16 16 16 16
8 8 8 8 8 8 9 9 10 10 10 11 11 11 11 12 12 12 13 14 14 14 15 15 15 15 15 15 14 14 14 14 14 15 15 15 16 16 16 16 16 16 15
8 8 8 7 7 8 8 8 9 9 10 10 11 11 11 11 11 12 12 13 13 14 14 14 15 15 15 14 14 14 13 13 13 13 14 14 15 15 15 15 15 15 15
8 7 7 7 7 7 8 8 8 9 9 9 10 10 11 11 11 11 11 12 12 13 13 14 14 14 14 14 14 14 13 12 12 12 12 13 13 14 14 14 14 14 14
7 7 7 7 7 7 7 8 8 8 8 9 9 10 10 11 11 11 11 11 11 12 12 13 13 14 14 14 14 14 13 12 12 12 12 12 12 12 13 13 13 13 13
7 7 7 7 7 7 7 7 7 7 8 8 8 9 9 10 10 11 11 11 11 11 11 12 12 13 13 13 14 13 13 12 12 12 12 11 11 12 12 12 12 12 12
7 7 7 7 7 6 6 6 7 7 7 7 8 8 9 10 10 10 10 10 11 11 11 11 12 12 13 13 13 14 13 12 12 11 11 11 11 11 11 11 11 11 12
7 7 7 7 6 6 6 6 6 6 6 7 8 8 9 9 10 10 10 10 10 10 11 11 11 12 12 12 13 13 12 12 11 11 11 11 11 11 11 11 11 11 11
7 7 7 7 6 6 6 6 6 6 6 7 7 8 8 9 9 10 10 10 10 10 10 10 11 11 11 12 12 12 13 12 12 11 11 11 11 11 10 10 10 10 10
Wind_Speed
5 7 6 5 7 9 7 8 8 11 12 10 10 10 9 12 12 9 8 21 24 24 24 22 21 21 21 21 23 23 23 23 23 22 21 19 18 18 18 17 17 16 15
5 6 8 9 7 7 6 6 9 9 9 9 10 9 8 8 9 9 9 16 22 23 24 23 23 23 22 22 23 23 24 24 24 23 22 21 21 20 20 20 19 19 18
5 6 7 8 7 8 7 6 7 6 8 8 9 9 8 7 7 7 10 12 16 23 25 25 25 25 24 24 24 24 25 25 25 24 24 24 23 23 22 22 22 21 20
6 6 7 7 6 5 6 7 7 7 8 8 7 7 7 7 8 7 8 11 12 16 22 26 27 26 26 25 25 25 26 26 26 26 26 26 26 25 25 24 23 23 23
6 4 5 5 4 4 5 8 7 7 9 9 9 9 8 8 8 9 9 10 13 15 17 24 28 27 27 26 25 25 25 26 27 27 27 27 27 27 26 26 25 25 24
5 4 4 3 3 3 3 5 7 6 6 7 10 10 9 9 8 9 10 10 11 15 18 19 21 23 26 26 25 25 25 26 26 27 27 27 27 28 28 28 27 26 25
5 4 4 3 3 2 3 3 4 5 5 6 6 6 6 9 9 8 9 9 11 13 16 17 17 16 18 25 27 26 26 26 26 27 27 27 26 27 28 28 27 27 27
5 6 4 4 3 3 3 3 2 3 3 4 4 4 4 6 8 11 10 10 11 10 12 14 15 16 15 16 21 26 26 26 26 26 27 27 27 27 28 27 27 27 27
6 5 5 4 4 4 3 4 3 2 2 3 4 4 3 3 4 7 9 9 9 7 6 7 10 14 15 13 16 25 28 27 26 26 26 26 27 27 27 27 26 26 26
7 5 4 4 4 4 4 5 5 3 3 4 4 4 5 1 2 0 4 6 8 7 6 6 9 9 12 11 12 17 25 25 24 24 23 24 25 25 26 26 25 25 25
8 6 3 2 4 4 4 4 4 4 3 4 4 4 5 5 5 2 3 4 5 6 5 4 3 5 8 10 10 14 22 24 22 21 21 21 23 24 25 26 25 25 25
6 6 4 1 2 3 4 4 4 5 5 6 6 5 4 4 4 4 4 4 6 6 7 5 4 4 4 5 7 11 19 21 20 19 19 19 21 23 24 25 25 25 25
8 8 7 3 3 3 4 4 4 4 4 6 7 6 5 6 6 4 3 3 3 4 6 5 5 4 4 7 8 10 12 14 15 16 16 17 18 20 22 24 25 25 25
9 9 8 6 5 5 6 3 3 4 3 3 5 6 5 6 5 4 2 2 2 3 6 6 5 5 4 7 9 8 8 10 12 14 15 15 16 17 19 21 22 23 23
11 11 11 10 8 7 6 5 4 5 4 4 3 4 4 5 5 5 4 3 2 4 4 5 4 6 5 7 8 6 8 7 8 10 12 14 15 15 15 17 18 19 19
9 10 10 10 10 9 8 7 7 7 7 5 4 4 4 3 4 4 5 4 3 3 3 4 4 8 8 8 7 9 9 9 5 5 8 10 12 13 13 14 14 15 15
9 10 10 10 11 11 10 9 9 9 8 7 7 6 6 4 4 4 4 4 4 3 3 3 5 9 9 10 8 8 9 8 7 7 7 8 9 9 10 10 11 11 11
9 10 10 10 11 12 10 10 11 12 10 10 9 8 8 6 6 4 4 4 4 4 2 4 7 8 9 10 9 8 6 9 8 9 10 11 11 11 10 10 11 11 11
10 10 10 10 11 11 11 12 11 11 12 11 10 10 9 9 8 6 5 4 4 4 3 3 5 7 8 9 10 9 9 7 8 10 12 13 14 14 14 14 13 13 13
10 10 11 11 10 11 12 12 12 12 12 12 11 10 10 10 10 9 7 6 5 4 3 4 5 7 8 10 10 9 7 6 6 6 9 12 15 16 15 15 15 15 16
13 11 11 11 11 11 13 12 11 14 12 12 12 11 11 12 13 11 9 8 8 5 4 4 5 5 7 10 10 8 9 7 5 5 6 6 7 8 10 13 15 17 19
11 11 12 13 13 14 15 13 10 10 10 11 11 11 12 12 13 15 14 13 13 10 8 6 6 6 8 9 9 10 10 8 4 4 5 6 6 7 7 9 14 18 20
12 12 12 13 13 13 16 16 15 12 12 11 11 11 14 14 14 12 13 14 13 13 12 8 7 7 6 7 10 12 12 10 6 7 6 6 7 8 7 11 15 18 20
12 12 12 13 12 14 16 16 16 14 13 12 11 11 12 11 11 12 13 12 11 11 11 9 8 7 4 3 6 8 10 9 9 6 6 5 6 7 7 10 13 17 19
12 12 12 12 12 13 15 15 15 11 11 12 12 12 12 12 13 13 12 12 11 9 12 12 10 8 6 4 3 6 10 13 10 5 3 5 7 8 7 6 10 14 17
12 12 12 11 12 12 13 13 13 10 9 9 9 10 14 13 13 13 11 11 11 9 10 11 10 9 8 7 8 9 11 13 11 6 5 6 9 6 5 4 5 9 11
Wind_Direction
260 264 266 262 247 236 225 222 224 219 220 226 227 216 206 214 230 241 193 182 183 184 187 191 197 205 210 210 210 210 208 206 203 201 203 207 209 208 205 202 200 198 198
273 270 268 264 256 252 252 229 232 239 232 228 229 231 223 222 228 235 204 194 193 194 194 196 201 207 212 213 212 212 212 210 207 205 205 209 212 213 210 206 203 201 201
297 287 276 269 259 253 254 249 243 244 245 236 229 234 234 231 234 232 234 219 207 205 203 203 205 207 211 214 214 214 213 211 209 206 206 209 213 216 215 210 206 204 203
316 300 282 274 267 259 250 250 244 244 244 243 235 232 234 229 228 226 233 243 234 221 215 213 209 208 210 213 215 215 213 212 210 209 209 210 212 215 217 214 209 206 205
313 308 301 292 284 264 253 253 244 238 240 240 238 232 230 229 219 222 216 225 235 237 223 218 213 209 211 214 216 216 214 213 211 210 212 212 213 214 216 216 212 209 207
313 302 293 290 287 280 267 256 252 240 238 237 241 239 224 220 213 214 216 217 223 228 227 217 209 211 212 214 215 216 215 214 212 211 214 215 214 214 215 216 214 211 209
325 300 302 297 265 255 266 278 262 247 237 232 237 248 240 221 211 210 212 215 219 221 220 206 194 198 207 216 217 216 216 216 214 213 214 215 214 213 212 213 214 214 211
326 315 299 288 267 256 265 277 267 239 240 227 220 229 233 225 218 212 204 208 216 215 213 195 185 191 197 201 215 216 216 217 217 216 215 214 213 212 210 210 213 214 214
314 309 304 294 281 262 254 246 248 247 252 266 237 228 238 238 220 202 200 201 200 208 210 191 185 187 195 192 199 212 215 215 216 216 214 213 211 209 208 208 210 214 215
302 291 299 311 298 281 263 244 226 218 245 265 279 262 266 289 292 236 197 192 185 195 212 206 194 178 186 195 199 197 208 211 214 215 214 211 209 207 207 208 210 214 216
286 284 279 317 320 304 293 276 264 233 231 249 261 273 270 256 240 235 211 188 184 183 201 204 187 165 176 189 197 190 194 202 207 211 212 210 208 208 210 211 213 215 217
306 312 311 23 322 328 324 305 288 260 238 248 258 266 270 264 246 226 214 198 189 185 178 178 185 168 170 173 188 179 183 191 197 203 207 209 209 209 211 213 216 218 220
319 316 320 323 303 303 303 301 304 292 260 246 251 260 269 277 284 267 225 226 194 170 160 164 166 156 152 127 117 137 164 177 189 196 203 208 210 211 213 215 218 220 222
301 305 316 311 294 279 274 270 282 283 284 268 258 258 268 279 295 303 288 256 217 183 172 169 143 137 116 114 126 135 150 170 186 196 202 207 211 213 215 216 217 220 222
312 319 324 312 297 279 264 253 248 253 255 261 264 263 260 268 290 307 313 299 238 215 202 166 138 138 126 113 138 145 131 155 178 194 200 204 208 211 213 215 216 217 218
304 305 302 300 296 287 272 253 244 238 225 225 229 240 250 259 281 290 301 304 287 249 221 180 159 152 145 138 138 116 111 118 118 163 183 193 199 204 207 208 207 207 209
311 305 302 298 295 290 281 267 253 250 236 224 215 218 224 222 244 266 282 294 291 278 238 188 147 145 138 132 132 130 138 121 91 96 123 145 162 173 182 186 187 187 188
300 300 299 297 293 290 286 279 266 256 244 233 222 214 213 211 212 227 247 264 276 283 262 202 154 154 150 140 140 137 124 107 96 89 98 106 117 125 134 144 148 152 155
293 292 290 289 288 288 286 281 274 266 256 245 233 221 212 204 205 203 211 227 246 264 268 227 190 165 151 146 136 122 110 109 106 103 93 92 99 105 111 117 123 128 132
292 289 287 285 283 282 280 277 273 269 261 253 243 231 218 209 205 199 202 207 212 223 242 241 216 175 159 151 140 135 129 126 119 106 91 94 94 93 99 106 111 116 120
294 292 290 286 282 279 272 266 264 266 261 254 249 239 229 217 210 200 198 195 195 199 208 223 220 195 170 163 160 153 143 129 114 131 123 117 104 92 88 93 103 111 115
295 291 286 283 279 277 281 287 282 279 275 265 255 246 242 228 218 201 196 191 190 195 199 205 212 209 195 180 165 157 148 147 144 158 138 122 111 96 82 85 106 112 114
297 291 285 280 276 272 270 269 267 265 263 260 251 244 244 233 210 199 196 194 195 197 194 191 206 211 202 189 172 164 163 162 146 155 133 112 100 88 82 90 107 113 116
295 291 285 281 277 273 265 258 257 258 256 250 243 236 235 245 225 199 192 196 200 200 198 197 203 209 208 207 183 171 161 138 123 134 129 114 110 99 92 89 103 115 120
294 290 286 280 277 274 266 257 249 256 249 245 238 234 228 228 228 204 193 195 198 199 201 201 200 199 200 212 207 162 156 148 144 142 126 116 124 111 97 95 102 113 122
292 292 288 284 282 279 269 253 241 247 245 241 235 235 228 221 213 196 194 194 200 200 189 193 202 206 206 213 206 182 168 159 150 147 156 130 145 134 112 107 120 125 121
Height
1516 1516 1516 1515 1515 1514 1515 1515 1516 1517 1519 1521 1523 1525 1526 1528 1532 1534 1535 1537 1539 1541 1544 1546 1548 1550 1552 1555 1557 1560 1562 1565 1567 1570 1572 1575 1578 1580 1583 1585 1587 1590 1592
1511 1510 1509 1508 1508 1508 1508 1509 1510 1512 1514 1515 1517 1519 1521 1523 1525 1528 1531 1531 1533 1536 1539 1541 1543 1545 1548 1550 1553 1555 1558 1561 1563 1566 1569 1571 1574 1577 1580 1582 1585 1587 1590
1505 1503 1502 1500 1500 1500 1501 1502 1503 1505 1506 1509 1510 1512 1515 1517 1519 1522 1525 1527 1528 1530 1532 1535 1537 1539 1542 1545 1548 1551 1553 1556 1559 1562 1565 1568 1570 1573 1576 1579 1582 1585 1587
1500 1498 1495 1493 1492 1493 1493 1494 1496 1497 1499 1502 1503 1506 1508 1510 1513 1515 1517 1519 1521 1523 1525 1528 1531 1533 1536 1539 1543 1546 1549 1551 1554 1557 1560 1564 1566 1569 1572 1575 1578 1581 1584
1496 1493 1490 1487 1486 1486 1486 1487 1488 1490 1492 1495 1497 1500 1502 1504 1506 1508 1510 1512 1513 1516 1519 1521 1524 1527 1530 1534 1537 1540 1543 1546 1549 1552 1556 1559 1562 1565 1568 1571 1574 1577 1580
1492 1490 1487 1484 1481 1480 1481 1482 1483 1483 1485 1488 1492 1494 1496 1497 1499 1501 1503 1505 1507 1509 1510 1514 1518 1521 1525 1528 1531 1534 1538 1541 1544 1547 1550 1554 1557 1560 1563 1566 1569 1572 1576
1490 1487 1484 1482 1479 1478 1478 1479 1479 1480 1481 1484 1487 1489 1491 1492 1494 1495 1497 1498 1501 1502 1504 1508 1512 1516 1519 1522 1525 1528 1531 1535 1538 1541 1545 1548 1551 1555 1558 1561 1564 1567 1570
1487 1485 1483 1480 1479 1477 1477 1476 1477 1477 1479 1481 1484 1486 1487 1489 1489 1490 1491 1493 1496 1498 1500 1503 1507 1511 1514 1517 1519 1522 1525 1528 1532 1535 1538 1542 1546 1549 1552 1556 1559 1562 1565
1485 1483 1481 1479 1477 1476 1475 1474 1475 1476 1477 1478 1480 1483 1484 1484 1484 1485 1487 1489 1492 1494 1497 1500 1503 1506 1509 1512 1515 1518 1520 1523 1526 1529 1532 1536 1540 1543 1547 1551 1554 1557 1561
1483 1481 1479 1476 1475 1474 1473 1473 1474 1474 1475 1476 1477 1479 1481 1482 1482 1482 1484 1486 1488 1491 1494 1497 1499 1502 1505 1508 1511 1513 1516 1518 1521 1524 1527 1530 1534 1537 1541 1545 1549 1552 1556
1480 1478 1476 1474 1473 1472 1471 1471 1471 1472 1473 1474 1474 1476 1477 1479 1480 1482 1482 1484 1486 1488 1490 1493 1496 1499 1501 1504 1507 1509 1511 1514 1516 1519 1522 1525 1529 1532 1536 1540 1543 1547 1550
1477 1476 1474 1472 1470 1469 1468 1468 1468 1469 1470 1471 1471 1473 1475 1477 1478 1479 1481 1482 1483 1485 1487 1490 1493 1496 1498 1500 1503 1505 1507 1510 1513 1515 1518 1521 1524 1527 1531 1534 1538 1541 1545
1473 1472 1471 1469 1468 1467 1466 1465 1465 1465 1466 1467 1468 1469 1471 1473 1475 1477 1478 1480 1481 1483 1485 1487 1490 1493 1495 1497 1499 1501 1503 1506 1509 1511 1514 1517 1520 1523 1526 1530 1533 1536 1539
1469 1468 1467 1465 1464 1464 1463 1463 1462 1462 1462 1463 1464 1465 1467 1468 1470 1472 1475 1477 1479 1481 1482 1484 1486 1489 1492 1493 1495 1497 1499 1502 1505 1507 1510 1513 1516 1519 1522 1525 1528 1531 1534
1463 1462 1461 1460 1459 1459 1459 1459 1458 1458 1458 1458 1459 1461 1462 1465 1466 1468 1471 1473 1476 1477 1480 1481 1483 1485 1488 1490 1492 1493 1495 1498 1500 1503 1506 1508 1512 1515 1518 1521 1524 1527 1530
1458 1456 1455 1454 1454 1453 1453 1454 1453 1454 1454 1454 1454 1455 1457 1459 1462 1464 1467 1469 1472 1474 1476 1478 1479 1481 1484 1486 1488 1489 1492 1494 1496 1499 1501 1504 1507 1510 1513 1516 1519 1522 1525
1452 1450 1449 1448 1447 1447 1447 1448 1448 1448 1449 1449 1449 1450 1451 1453 1455 1458 1461 1464 1467 1470 1472 1475 1476 1478 1481 1483 1485 1487 1489 1491 1493 1495 1498 1501 1504 1506 1509 1512 1515 1518 1521
1447 1445 1443 1441 1440 1440 1440 1440 1441 1442 1442 1443 1444 1445 1445 1447 1448 1451 1454 1458 1461 1464 1468 1471 1473 1475 1477 1480 1483 1485 1486 1488 1490 1492 1495 1497 1500 1503 1506 1508 1511 1514 1517
1441 1439 1437 1435 1434 1433 1432 1432 1433 1434 1435 1437 1438 1439 1440 1441 1442 1444 1447 1451 1455 1458 1462 1466 1469 1472 1474 1477 1480 1482 1484 1485 1487 1489 1492 1494 1497 1500 1503 1505 1508 1510 1513
1436 1433 1431 1429 1427 1426 1425 1425 1425 1426 1427 1429 1431 1433 1434 1436 1437 1438 1440 1443 1447 1451 1456 1460 1464 1468 1471 1473 1476 1479 1481 1483 1485 1488 1489 1492 1494 1497 1500 1502 1505 1508 1510
1430 1427 1424 1422 1420 1419 1418 1418 1417 1417 1419 1420 1422 1425 1428 1430 1431 1433 1435 1437 1440 1444 1448 1453 1458 1462 1466 1469 1472 1475 1478 1481 1484 1486 1488 1490 1492 1495 1497 1500 1502 1505 1508
1424 1420 1417 1414 1412 1411 1411 1410 1409 1409 1410 1412 1413 1416 1420 1423 1425 1427 1429 1431 1434 1437 1442 1446 1450 1455 1459 1463 1467 1471 1474 1477 1481 1485 1487 1489 1492 1494 1496 1498 1501 1504 1507
1417 1413 1410 1407 1404 1402 1401 1400 1400 1400 1401 1402 1405 1408 1412 1415 1418 1420 1422 1425 1427 1430 1435 1439 1443 1448 1453 1458 1462 1466 1469 1474 1477 1481 1485 1488 1491 1493 1496 1498 1501 1504 1507
1410 1406 1402 1399 1396 1393 1392 1390 1390 1390 1391 1392 1396 1399 1404 1407 1411 1413 1416 1418 1421 1424 1427 1432 1437 1442 1447 1452 1456 1461 1465 1470 1475 1480 1483 1485 1489 1492 1495 1498 1501 1504 1506
1403 1399 1396 1392 1388 1385 1383 1381 1381 1381 1382 1384 1387 1391 1396 1400 1404 1407 1410 1412 1415 1418 1422 1426 1431 1436 1440 1445 1450 1455 1460 1465 1470 1475 1479 1482 1485 1489 1493 1497 1500 1503 1506
1397 1393 1389 1385 1381 1378 1375 1373 1373 1373 1374 1377 1381 1385 1389 1394 1398 1401 1405 1408 1411 1413 1417 1421 1425 1429 1434 1439 1444 1448 1453 1458 1463 1470 1474 1477 1481 1486 1491 1495 1499 1502 1505